Simultaneous Nadir Overpasses (SNOs) Predictions

Prediction of SNOs between NOAA-19 and NPP Satellite Orbit:

Table of predicted SNOs for the next 14.0 days since TLE Epoch: 10/8/2016
Index Date (NOAA-19) Time (NOAA-19) Lat,Lon (NOAA-19) SZA (NOAA-19 ) Date (NPP) Time (NPP) Lat,Lon (NPP) SZA (NPP ) Distance(km) Time Diff (sec)
1 10/19/2016 03:19:30 -80.96,-101.91 86.01 10/19/2016 03:20:43 -80.95,-101.89 86.05 0.74 73
2 10/19/2016 04:10:34 80.96, 65.39 94.00 10/19/2016 04:11:28 80.95, 65.46 93.96 1.42 54
3 10/19/2016 05:01:32 -80.96,-127.46 85.98 10/19/2016 05:02:13 -80.95,-127.29 86.02 2.95 41
4 10/19/2016 05:52:36 80.96, 39.85 94.03 10/19/2016 05:52:59 80.97, 39.69 94.05 3.05 23
5 10/19/2016 06:43:33 -80.96,-152.63 85.99 10/19/2016 06:43:43 -80.96,-152.70 85.99 1.32 10
6 10/19/2016
